• In United Kingdom
  • List of Countries
  • For 7 days
  • Water Temperature
  • Satellite Maps
  • Weather Map
  • Weather Widgets
  • user-avatar
    Login

    Hourly Weather Mendoza

    Today, 22 November, Wednesday

    Time Temperature Precipitation Wind Pressure Humidity
    00:00 +21°C° 0 mm 2 mps 699 mmHg 21%
    01:00 +21°C° 0 mm 1 mps 698 mmHg 22%
    02:00 +19°C° 0 mm 2 mps 698 mmHg 23%
    03:00 +19°C° 0 mm 2 mps 698 mmHg 24%
    04:00 +18°C° 0 mm 2 mps 697 mmHg 25%
    05:00 +20°C° 0 mm 2 mps 698 mmHg 23%
    06:00 +21°C° 0 mm 2 mps 698 mmHg 22%
    07:00 +24°C° 0 mm 2 mps 698 mmHg 21%
    08:00 +25°C° 0 mm 2 mps 698 mmHg 19%
    09:00 +27°C° 0 mm 3 mps 698 mmHg 18%
    10:00 +28°C° 0 mm 3 mps 697 mmHg 16%
    11:00 +30°C° 0 mm 4 mps 697 mmHg 15%
    12:00 +32°C° 0 mm 4 mps 696 mmHg 13%
    13:00 +33°C° 0 mm 5 mps 696 mmHg 12%
    14:00 +33°C° 0 mm 4 mps 695 mmHg 12%
    15:00 +33°C° 0 mm 4 mps 695 mmHg 12%
    16:00 +34°C° 0 mm 4 mps 694 mmHg 12%
    17:00 +31°C° 0 mm 3 mps 695 mmHg 13%
    18:00 +30°C° 0 mm 3 mps 695 mmHg 14%
    19:00 +28°C° 0 mm 2 mps 695 mmHg 15%
    20:00 +28°C° 0 mm 2 mps 695 mmHg 16%
    21:00 +27°C° 0 mm 2 mps 695 mmHg 16%
    22:00 +26°C° 0 mm 2 mps 695 mmHg 17%
    23:00 +26°C° 0 mm 2 mps 695 mmHg 17%

    Tomorrow, 23 November, Thursday

    Time Temperature Precipitation Wind Pressure Humidity
    00:00 +25°C° 0 mm 3 mps 695 mmHg 17%
    01:00 +24°C° 0 mm 3 mps 694 mmHg 18%
    02:00 +24°C° 0 mm 3 mps 695 mmHg 17%
    03:00 +22°C° 0 mm 3 mps 695 mmHg 17%
    04:00 +22°C° 0 mm 4 mps 695 mmHg 16%
    05:00 +23°C° 0 mm 4 mps 695 mmHg 15%
    06:00 +26°C° 0 mm 5 mps 696 mmHg 15%
    07:00 +27°C° 0 mm 6 mps 697 mmHg 14%
    08:00 +28°C° 0 mm 6 mps 697 mmHg 14%
    09:00 +29°C° 0 mm 6 mps 697 mmHg 14%
    10:00 +32°C° 0 mm 6 mps 697 mmHg 14%
    11:00 +32°C° 0 mm 6 mps 696 mmHg 14%
    12:00 +33°C° 0 mm 6 mps 696 mmHg 15%
    13:00 +34°C° 0 mm 6 mps 696 mmHg 15%
    14:00 +34°C° 0 mm 6 mps 696 mmHg 15%
    15:00 +33°C° 0 mm 6 mps 695 mmHg 16%
    16:00 +33°C° 0 mm 7 mps 695 mmHg 16%
    17:00 +32°C° 0 mm 6 mps 696 mmHg 18%
    18:00 +29°C° 0 mm 6 mps 696 mmHg 19%
    19:00 +27°C° 0 mm 5 mps 696 mmHg 21%
    20:00 +26°C° 0 mm 5 mps 697 mmHg 22%
    21:00 +25°C° 0 mm 4 mps 697 mmHg 23%
    22:00 +23°C° 0 mm 4 mps 698 mmHg 24%
    23:00 +22°C° 0 mm 4 mps 697 mmHg 28%

    Day after tomorrow, 24 November, Friday

    Time Temperature Precipitation Wind Pressure Humidity
    00:00 +21°C° 0 mm 4 mps 697 mmHg 32%
    01:00 +20°C° 0 mm 5 mps 696 mmHg 36%
    02:00 +20°C° 0 mm 4 mps 696 mmHg 39%
    03:00 +19°C° 0 mm 4 mps 696 mmHg 42%
    04:00 +18°C° 0 mm 4 mps 695 mmHg 45%
    05:00 +19°C° 0 mm 4 mps 696 mmHg 42%
    06:00 +20°C° 0 mm 4 mps 696 mmHg 39%
    07:00 +21°C° 0 mm 5 mps 697 mmHg 36%
    08:00 +23°C° 0 mm 5 mps 697 mmHg 33%
    09:00 +25°C° 0 mm 5 mps 697 mmHg 30%
    10:00 +27°C° 0 mm 6 mps 697 mmHg 26%
    11:00 +28°C° 0 mm 5 mps 697 mmHg 24%
    12:00 +29°C° 0 mm 5 mps 697 mmHg 21%
    13:00 +30°C° 0 mm 5 mps 697 mmHg 18%
    14:00 +30°C° 0 mm 5 mps 696 mmHg 17%
    15:00 +32°C° 0 mm 5 mps 696 mmHg 17%
    16:00 +32°C° 0 mm 5 mps 696 mmHg 16%
    17:00 +30°C° 0 mm 4 mps 697 mmHg 18%
    18:00 +28°C° 0 mm 3 mps 697 mmHg 20%
    19:00 +27°C° 0 mm 2 mps 698 mmHg 21%
    20:00 +26°C° 0 mm 2 mps 698 mmHg 23%
    21:00 +26°C° 0 mm 2 mps 699 mmHg 25%
    22:00 +25°C° 0 mm 2 mps 699 mmHg 26%
    23:00 +24°C° 0 mm 2 mps 699 mmHg 30%

    25 November, Saturday

    Time Temperature Precipitation Wind Pressure Humidity
    00:00 +24°C° 0 mm 2 mps 698 mmHg 34%
    01:00 +23°C° 0 mm 1 mps 698 mmHg 37%
    02:00 +22°C° 0 mm 1 mps 698 mmHg 40%
    03:00 +21°C° 0 mm 2 mps 698 mmHg 42%
    04:00 +20°C° 0 mm 2 mps 698 mmHg 44%
    05:00 +23°C° 0 mm 2 mps 699 mmHg 41%
    06:00 +24°C° 0 mm 2 mps 699 mmHg 38%
    07:00 +25°C° 0 mm 2 mps 700 mmHg 35%
    08:00 +27°C° 0 mm 2 mps 700 mmHg 31%
    09:00 +28°C° 0 mm 3 mps 700 mmHg 28%
    10:00 +30°C° 0 mm 4 mps 700 mmHg 25%
    11:00 +32°C° 0 mm 4 mps 699 mmHg 23%
    12:00 +33°C° 0 mm 4 mps 699 mmHg 21%
    13:00 +34°C° 0 mm 4 mps 698 mmHg 19%
    14:00 +34°C° 0 mm 4 mps 698 mmHg 19%
    15:00 +34°C° 0 mm 4 mps 698 mmHg 19%
    16:00 +34°C° 0 mm 4 mps 697 mmHg 19%
    17:00 +33°C° 0 mm 4 mps 698 mmHg 21%
    18:00 +32°C° 0 mm 4 mps 698 mmHg 22%
    19:00 +30°C° 0 mm 3 mps 698 mmHg 23%
    20:00 +29°C° 0 mm 3 mps 698 mmHg 25%
    21:00 +28°C° 0 mm 3 mps 698 mmHg 27%
    22:00 +27°C° 0 mm 2 mps 698 mmHg 29%
    23:00 +26°C° 0 mm 2 mps 698 mmHg 30%

    26 November, Sunday

    Time Temperature Precipitation Wind Pressure Humidity
    00:00 +25°C° 0 mm 2 mps 697 mmHg 32%
    01:00 +25°C° 0 mm 2 mps 696 mmHg 34%
    02:00 +24°C° 0 mm 2 mps 696 mmHg 33%
    03:00 +24°C° 0 mm 2 mps 695 mmHg 33%
    04:00 +23°C° 0 mm 2 mps 695 mmHg 33%
    05:00 +25°C° 0 mm 2 mps 695 mmHg 29%
    06:00 +26°C° 0 mm 2 mps 695 mmHg 25%
    07:00 +28°C° 0 mm 1 mps 696 mmHg 22%
    08:00 +29°C° 0 mm 2 mps 695 mmHg 20%
    09:00 +31°C° 0 mm 3 mps 695 mmHg 18%
    10:00 +34°C° 0 mm 4 mps 695 mmHg 16%
    11:00 +35°C° 0 mm 4 mps 694 mmHg 15%
    12:00 +36°C° 0 mm 5 mps 694 mmHg 15%
    13:00 +37°C° 0 mm 5 mps 693 mmHg 14%
    14:00 +37°C° 0 mm 4 mps 693 mmHg 14%
    15:00 +37°C° 0 mm 4 mps 692 mmHg 13%
    16:00 +37°C° 0 mm 3 mps 692 mmHg 13%
    17:00 +36°C° 0 mm 3 mps 692 mmHg 15%
    18:00 +34°C° 0 mm 2 mps 693 mmHg 17%
    19:00 +32°C° 0 mm 1 mps 693 mmHg 18%
    20:00 +31°C° 0.3 mm 2 mps 694 mmHg 20%
    21:00 +30°C° 0.3 mm 3 mps 694 mmHg 21%
    22:00 +30°C° 0.3 mm 5 mps 695 mmHg 22%
    23:00 +29°C° 0.2 mm 6 mps 695 mmHg 24%

    27 November, Monday

    Time Temperature Precipitation Wind Pressure Humidity
    00:00 +28°C° 0.2 mm 8 mps 695 mmHg 26%
    01:00 +27°C° 0.2 mm 9 mps 695 mmHg 28%
    02:00 +26°C° 0 mm 8 mps 696 mmHg 29%
    03:00 +23°C° 0 mm 7 mps 697 mmHg 30%
    04:00 +22°C° 0 mm 6 mps 698 mmHg 31%
    05:00 +22°C° 0 mm 6 mps 699 mmHg 32%
    06:00 +22°C° 0 mm 6 mps 699 mmHg 32%
    07:00 +21°C° 0 mm 6 mps 700 mmHg 32%
    08:00 +22°C° 0 mm 6 mps 700 mmHg 31%
    09:00 +23°C° 0 mm 6 mps 700 mmHg 30%
    10:00 +24°C° 0 mm 6 mps 700 mmHg 29%
    11:00 +24°C° 0 mm 6 mps 700 mmHg 28%
    12:00 +26°C° 0 mm 6 mps 700 mmHg 28%
    13:00 +26°C° 0 mm 6 mps 700 mmHg 28%
    14:00 +26°C° 0.1 mm 5 mps 700 mmHg 29%
    15:00 +26°C° 0.1 mm 5 mps 700 mmHg 29%
    16:00 +26°C° 0.1 mm 5 mps 700 mmHg 30%
    17:00 +25°C° 0.1 mm 4 mps 700 mmHg 31%
    18:00 +23°C° 0.1 mm 4 mps 701 mmHg 31%
    19:00 +23°C° 0.1 mm 4 mps 701 mmHg 32%
    20:00 +22°C° 0 mm 3 mps 701 mmHg 33%
    21:00 +21°C° 0 mm 3 mps 701 mmHg 33%
    22:00 +21°C° 0 mm 2 mps 701 mmHg 34%
    23:00 +20°C° 0 mm 2 mps 701 mmHg 35%
    Show more